Location: Veytaux
(46.4185°N, 6.9320°E)
Time: 08:38:48
(UTC+00:00)

Lacrosse 5 rocket - Pass Details

Date: 27 May 2022
Orbit: 456 x 629 km, 57.0° (Epoch: 01 July)

Event Time Altitude Azimuth Distance (km) Brightness Sun altitude
Exits shadow 02:51:58 - 263° (W) 2,037 3.7 -8.3°
Reaches altitude 10° 02:52:47 10° 267° (W) 1,737 3.4 -8.2°
Maximum altitude 02:56:23 34° 334° (NNW) 886 2.6 -7.8°
Drops below altitude 10° 03:00:13 10° 41° (NE) 1,843 5.7 -7.3°
Sets 03:02:41 0° 51° (NE) 2,775 7.7 -6.9°
